Tracking 19800 objects as of 23-Jul-2019
HD Live streaming from Space Station
objects crossing your sky now

DELTA 1 R/B(1)

Track DELTA 1 R/B(1) now!
10-day predictions


NORAD ID: 15392
Int'l Code: 1984-115B
Perigee: 677.0 km
Apogee: 2,303.4 km
Inclination: 21.5 °
Period: 115.6 minutes
Semi major axis: 7861 km
RCS: 10.0127 m2 (large)
Launch date: November 14, 1984
Source: United States (US)
Launch site: AIR FORCE EASTERN TEST RANGE (AFETR)

Note: This is a ROCKET BODY
aabbcc
Your satellite tracking list
Your tracking list is empty




NASA's NSSDC Master Catalog

Two Line Element Set (TLE):
1 15392U 84115B   19203.84663066  .00000219  00000-0  51067-4 0  9998
2 15392  21.4943  52.3171 1034482 163.1703 200.5820 12.45572956579562
Source of the keplerian elements: AFSPC